| time (UTC) | temp C | wind direction | speed KPH | gust KPH | rain 1hr cm | rain 24hr cm | rain mn cm | humidity % | barometer mb |
| 20260503054610 | 6 | 267 | 1.6 | 6.4 | 0.00 | 0.00 | 0.00 | 70 | 1015.9 |
| 20260503053053 | 6 | 320 | 1.6 | 4.8 | 0.00 | 0.00 | 0.00 | 66 | 1015.9 |
| 20260503051555 | 6 | 0 | 0.0 | 3.2 | 0.00 | 0.00 | 0.00 | 67 | 1016.0 |
| 20260503050055 | 6 | 0 | 0.0 | 1.6 | 0.00 | 0.00 | 0.00 | 66 | 1015.9 |
| 20260503044554 | 6 | 0 | 0.0 | 1.6 | 0.00 | 0.00 | 0.00 | 68 | 1015.7 |
| 20260503043056 | 6 | 270 | 0.0 | 1.6 | 0.00 | 0.00 | 0.00 | 64 | 1015.7 |
| 20260503041556 | 6 | 0 | 0.0 | 3.2 | 0.00 | 0.00 | 0.00 | 66 | 1015.5 |
| 20260503040057 | 6 | 0 | 0.0 | 3.2 | 0.00 | 0.00 | 0.00 | 66 | 1015.4 |
| 20260503034558 | 7 | 272 | 1.6 | 3.2 | 0.00 | 0.00 | 0.00 | 62 | 1015.4 |
| 20260503033103 | 8 | 0 | 0.0 | 1.6 | 0.00 | 0.00 | 0.00 | 55 | 1015.3 |
| 20260503031557 | 9 | 0 | 0.0 | 1.6 | 0.00 | 0.00 | 0.00 | 54 | 1015.3 |
| 20260503030104 | 9 | 27 | 0.0 | 4.8 | 0.00 | 0.00 | 0.00 | 51 | 1015.2 |
| 20260503024557 | 10 | 0 | 0.0 | 1.6 | 0.00 | 0.00 | 0.00 | 51 | 1015.1 |
| 20260503023103 | 10 | 15 | 0.0 | 4.8 | 0.00 | 0.00 | 0.00 | 48 | 1015.1 |
| 20260503021601 | 10 | 8 | 0.0 | 4.8 | 0.00 | 0.00 | 0.00 | 49 | 1015.0 |
| 20260503020055 | 11 | 48 | 0.0 | 3.2 | 0.00 | 0.00 | 0.00 | 46 | 1014.9 |
| 20260503014606 | 11 | 274 | 1.6 | 8.0 | 0.00 | 0.00 | 0.00 | 44 | 1014.6 |
| 20260503013057 | 12 | 305 | 3.2 | 9.7 | 0.00 | 0.00 | 0.00 | 45 | 1014.4 |
| 20260503011601 | 12 | 342 | 6.4 | 20.9 | 0.00 | 0.00 | 0.00 | 43 | 1014.1 |
| 20260503010057 | 12 | 340 | 4.8 | 19.3 | 0.00 | 0.00 | 0.00 | 42 | 1013.7 |
| 20260503004559 | 12 | 310 | 4.8 | 17.7 | 0.00 | 0.00 | 0.00 | 43 | 1013.5 |
| 20260503003106 | 13 | 306 | 4.8 | 19.3 | 0.00 | 0.00 | 0.00 | 42 | 1013.4 |
| 20260503001557 | 13 | 253 | 3.2 | 12.9 | 0.00 | 0.00 | 0.00 | 42 | 1013.1 |
| 20260502234606 | 14 | 342 | 3.2 | 14.5 | 0.00 | 0.00 | 0.00 | 38 | 1012.5 |
| 20260502233059 | 15 | 332 | 4.8 | 22.5 | 0.00 | 0.00 | 0.00 | 37 | 1012.2 |
| 20260502231602 | 15 | 351 | 6.4 | 17.7 | 0.00 | 0.00 | 0.00 | 37 | 1012.0 |
| 20260502230055 | 15 | 329 | 6.4 | 17.7 | 0.00 | 0.00 | 0.00 | 37 | 1011.8 |
| 20260502224556 | 15 | 334 | 6.4 | 27.4 | 0.00 | 0.00 | 0.00 | 36 | 1011.7 |
| 20260502223054 | 16 | 349 | 8.0 | 22.5 | 0.00 | 0.00 | 0.00 | 35 | 1011.5 |
| 20260502221556 | 17 | 334 | 6.4 | 19.3 | 0.00 | 0.00 | 0.00 | 33 | 1011.4 |
| 20260502220055 | 17 | 342 | 9.7 | 20.9 | 0.00 | 0.00 | 0.00 | 34 | 1011.0 |
| 20260502214558 | 18 | 297 | 3.2 | 11.3 | 0.00 | 0.00 | 0.00 | 33 | 1010.8 |
| 20260502213054 | 17 | 277 | 3.2 | 9.7 | 0.00 | 0.00 | 0.00 | 37 | 1010.7 |
| 20260502211603 | 17 | 213 | 1.6 | 8.0 | 0.00 | 0.00 | 0.00 | 40 | 1010.4 |
| 20260502210110 | 17 | 59 | 4.8 | 22.5 | 0.00 | 0.00 | 0.00 | 33 | 1010.3 |
| 20260502204609 | 17 | 0 | 0.0 | 12.9 | 0.00 | 0.00 | 0.00 | 40 | 1010.5 |
| 20260502203058 | 17 | 101 | 1.6 | 14.5 | 0.00 | 0.00 | 0.00 | 37 | 1010.4 |
| 20260502201600 | 17 | 349 | 16.1 | 29.0 | 0.00 | 0.00 | 0.00 | 35 | 1010.5 |
| 20260502200058 | 17 | 333 | 4.8 | 14.5 | 0.00 | 0.00 | 0.00 | 35 | 1010.7 |
| 20260502194557 | 17 | 126 | 3.2 | 11.3 | 0.00 | 0.00 | 0.00 | 37 | 1010.9 |
| 20260502193103 | 16 | 90 | 6.4 | 12.9 | 0.00 | 0.00 | 0.00 | 38 | 1011.1 |
| 20260502191606 | 17 | 151 | 1.6 | 6.4 | 0.00 | 0.00 | 0.00 | 36 | 1011.3 |
| 20260502190101 | 16 | 327 | 4.8 | 14.5 | 0.00 | 0.00 | 0.00 | 36 | 1011.5 |
| 20260502184601 | 15 | 58 | 6.4 | 14.5 | 0.00 | 0.00 | 0.00 | 36 | 1011.8 |
| 20260502183055 | 15 | 44 | 6.4 | 19.3 | 0.00 | 0.00 | 0.00 | 41 | 1011.8 |
| 20260502181556 | 15 | 49 | 3.2 | 12.9 | 0.00 | 0.00 | 0.00 | 40 | 1011.9 |
| 20260502163058 | 12 | 108 | 4.8 | 11.3 | 0.00 | 0.00 | 0.00 | 50 | 1013.6 |
| 20260502161559 | 12 | 43 | 1.6 | 6.4 | 0.00 | 0.00 | 0.00 | 52 | 1014.0 |
| 20260502151613 | 11 | 75 | 1.6 | 8.0 | 0.00 | 0.00 | 0.00 | 50 | 1014.1 |
| 20260502123103 | 11 | 33 | 1.6 | 6.4 | 0.00 | 0.00 | 0.00 | 56 | 1013.1 |
| 20260502121554 | 11 | 316 | 0.0 | 6.4 | 0.00 | 0.00 | 0.00 | 62 | 1013.3 |
| 20260502114600 | 11 | 54 | 1.6 | 6.4 | 0.00 | 0.00 | 0.00 | 65 | 1013.0 |
| 20260502113056 | 11 | 27 | 1.6 | 4.8 | 0.00 | 0.00 | 0.00 | 65 | 1013.0 |
| 20260502111600 | 11 | 18 | 1.6 | 8.0 | 0.00 | 0.00 | 0.00 | 64 | 1012.8 |
| 20260502110056 | 11 | 3 | 3.2 | 6.4 | 0.00 | 0.00 | 0.00 | 64 | 1012.8 |
| 20260502104555 | 11 | 43 | 4.8 | 9.7 | 0.00 | 0.00 | 0.00 | 64 | 1012.5 |
| 20260502103105 | 11 | 43 | 4.8 | 16.1 | 0.00 | 0.00 | 0.00 | 63 | 1012.5 |
| 20260502101611 | 11 | 347 | 3.2 | 17.7 | 0.00 | 0.00 | 0.00 | 64 | 1012.3 |
| 20260502100127 | 12 | 31 | 4.8 | 16.1 | 0.00 | 0.00 | 0.00 | 64 | 1012.6 |
| 20260502090114 | 12 | 347 | 4.8 | 9.7 | 0.00 | 0.00 | 0.00 | 66 | 1012.8 |
| 20260502070059 | 12 | 0 | 0.0 | 4.8 | 0.00 | 0.00 | 0.00 | 73 | 1011.6 |
| 20260502064606 | 12 | 283 | 1.6 | 8.0 | 0.00 | 0.00 | 0.00 | 73 | 1011.7 |